Location: Ebendorf
(52.1827°N, 11.5706°E)
Time: 08:31:55
(UTC+00:00)

BREEZE-M DEB (TANK) - Pass Details

Date: 15 May 2021
Orbit: 323 x 16585 km, 49.3° (Epoch: 21 June)

Event Time Altitude Azimuth Distance (km) Brightness Sun altitude
Exits shadow 02:04:26 11° 199° (SSW) 1,620 4.1 -9.5°
Maximum altitude 02:06:17 17° 160° (SSE) 1,089 3.6 -9.3°
Drops below altitude 10° 02:07:56 10° 115° (ESE) 1,267 4.4 -9.1°
Sets 02:10:00 0° 88° (E) 2,101 6.0 -8.9°
